Radiation Dose at Monitoring Post of Fukushima Daini Nuclear Power Station
Date,Time,MP-1(microSv/h),MP-2(microSv/h),MP-3(microSv/h),MP-4(microSv/h),MP-5(microSv/h),MP-6(microSv/h),MP-7(microSv/h),Wind Direction,Wind Velocity(m/s),Rain
2018/12/24,00:00,0.220,0.189,0.305,0.287,0.274,0.154,0.093,northwest,4.8,No
2018/12/24,00:10,0.219,0.189,0.306,0.287,0.275,0.153,0.094,northwest,4.4,No
2018/12/24,00:20,0.220,0.190,0.305,0.285,0.274,0.153,0.094,north-northwest,4.1,No
2018/12/24,00:30,0.220,0.191,0.304,0.287,0.274,0.152,0.093,north-northwest,6.3,No
2018/12/24,00:40,0.220,0.189,0.304,0.287,0.274,0.153,0.094,north-northwest,6.2,No
2018/12/24,00:50,0.220,0.190,0.305,0.286,0.274,0.153,0.094,north-northwest,5.5,No
2018/12/24,01:00,0.218,0.189,0.304,0.287,0.275,0.153,0.094,north,5.3,No
2018/12/24,01:10,0.220,0.189,0.305,0.287,0.274,0.153,0.094,north,4.1,No
2018/12/24,01:20,0.220,0.190,0.305,0.287,0.273,0.154,0.094,north,4.8,No
2018/12/24,01:30,0.219,0.189,0.305,0.288,0.274,0.153,0.094,north,5.1,No
2018/12/24,01:40,0.219,0.190,0.303,0.287,0.275,0.153,0.093,north,4.8,No
2018/12/24,01:50,0.220,0.191,0.304,0.287,0.274,0.152,0.093,north,4.2,No
2018/12/24,02:00,0.220,0.189,0.304,0.286,0.274,0.153,0.093,north,4.4,No
2018/12/24,02:10,0.220,0.188,0.305,0.286,0.274,0.153,0.093,north,3.5,No
2018/12/24,02:20,0.219,0.189,0.305,0.286,0.274,0.152,0.093,north,2.6,No
2018/12/24,02:30,0.220,0.189,0.305,0.286,0.274,0.152,0.093,north,1.4,No
2018/12/24,02:40,0.219,0.189,0.305,0.286,0.274,0.152,0.093,west-northwest,3.6,No
2018/12/24,02:50,0.219,0.188,0.305,0.287,0.274,0.153,0.093,west-northwest,8.8,No
2018/12/24,03:00,0.219,0.188,0.304,0.287,0.275,0.153,0.093,west-northwest,12.0,No
2018/12/24,03:10,0.219,0.188,0.305,0.289,0.271,0.153,0.093,west-northwest,15.6,No
2018/12/24,03:20,0.220,0.189,0.305,0.287,0.274,0.152,0.093,west-northwest,16.9,No
2018/12/24,03:30,0.219,0.189,0.305,0.287,0.275,0.153,0.093,west-northwest,16.5,No
2018/12/24,03:40,0.219,0.190,0.305,0.287,0.275,0.153,0.094,northwest,14.9,No
2018/12/24,03:50,0.220,0.189,0.306,0.287,0.275,0.153,0.092,northwest,14.7,No
2018/12/24,04:00,0.221,0.189,0.307,0.287,0.275,0.153,0.093,northwest,13.1,No
2018/12/24,04:10,0.220,0.189,0.306,0.288,0.276,0.153,0.093,northwest,17.5,No
2018/12/24,04:20,0.220,0.190,0.306,0.286,0.276,0.152,0.094,northwest,15.0,No
2018/12/24,04:30,0.221,0.189,0.306,0.287,0.276,0.154,0.093,northwest,15.8,No
2018/12/24,04:40,0.221,0.190,0.307,0.288,0.276,0.153,0.093,northwest,15.0,No
2018/12/24,04:50,0.220,0.190,0.308,0.287,0.276,0.154,0.093,northwest,16.7,No
2018/12/24,05:00,0.219,0.190,0.308,0.287,0.276,0.154,0.094,northwest,13.3,No
2018/12/24,05:10,0.221,0.191,0.308,0.286,0.276,0.153,0.093,northwest,15.1,No
2018/12/24,05:20,0.222,0.191,0.308,0.288,0.276,0.155,0.093,northwest,17.8,No
2018/12/24,05:30,0.221,0.190,0.308,0.290,0.277,0.154,0.094,west-northwest,14.8,No
2018/12/24,05:40,0.221,0.190,0.309,0.288,0.276,0.154,0.093,northwest,15.6,No
2018/12/24,05:50,0.222,0.189,0.308,0.289,0.275,0.154,0.093,west-northwest,18.0,No
2018/12/24,06:00,0.221,0.190,0.309,0.288,0.276,0.154,0.095,-,CALM,No
2018/12/24,06:10,0.222,0.190,0.309,0.287,0.277,0.153,0.094,west-northwest,18.4,No
2018/12/24,06:20,0.221,0.190,0.309,0.288,0.276,0.154,0.094,northwest,14.7,No
2018/12/24,06:30,0.222,0.190,0.311,0.288,0.278,0.155,0.094,northwest,12.8,No
2018/12/24,06:40,0.221,0.191,0.308,0.288,0.276,0.153,0.094,northwest,10.9,No
2018/12/24,06:50,0.222,0.191,0.310,0.289,0.278,0.154,0.094,northwest,12.0,No
2018/12/24,07:00,0.223,0.189,0.309,0.289,0.279,0.154,0.094,northwest,10.3,No
2018/12/24,07:10,0.222,0.192,0.309,0.288,0.277,0.154,0.095,northwest,9.2,No
2018/12/24,07:20,0.222,0.192,0.308,0.290,0.278,0.154,0.094,northwest,9.0,No
2018/12/24,07:30,0.222,0.191,0.308,0.288,0.277,0.154,0.093,north-northwest,4.8,No
2018/12/24,07:40,0.221,0.190,0.309,0.289,0.277,0.155,0.094,northwest,6.1,No
2018/12/24,07:50,0.222,0.191,0.309,0.288,0.277,0.153,0.094,northwest,6.3,No
2018/12/24,08:00,0.220,0.189,0.307,0.287,0.276,0.154,0.093,west-northwest,6.8,No
2018/12/24,08:10,0.222,0.191,0.308,0.289,0.276,0.153,0.092,west-northwest,6.4,No
2018/12/24,08:20,0.221,0.190,0.307,0.288,0.277,0.153,0.093,northwest,8.4,No
2018/12/24,08:30,0.221,0.190,0.307,0.287,0.275,0.153,0.093,northwest,9.0,No
2018/12/24,08:40,0.221,0.190,0.306,0.287,0.274,0.153,0.092,northwest,10.6,No
2018/12/24,08:50,0.222,0.190,0.307,0.287,0.275,0.153,0.093,west-northwest,10.7,No
2018/12/24,09:00,0.221,0.189,0.308,0.286,0.276,0.153,0.093,west-northwest,7.7,No
2018/12/24,09:10,0.221,0.190,0.307,0.287,0.276,0.154,0.093,west-northwest,4.7,No
2018/12/24,09:20,0.220,0.190,0.307,0.286,0.275,0.153,0.093,west-northwest,4.5,No
2018/12/24,09:30,0.221,0.190,0.306,0.286,0.275,0.153,0.093,west,5.9,No
2018/12/24,09:40,0.220,0.190,0.306,0.286,0.276,0.153,0.093,west-northwest,5.7,No
2018/12/24,09:50,0.222,0.190,0.307,0.287,0.275,0.154,0.094,west,5.9,No
2018/12/24,10:00,0.220,0.189,0.306,0.288,0.275,0.154,0.094,west-northwest,4.0,No
2018/12/24,10:10,0.221,0.190,0.308,0.286,0.277,0.153,0.093,west-northwest,2.3,No
2018/12/24,10:20,0.221,0.190,0.307,0.286,0.273,0.153,0.094,northwest,6.2,No
2018/12/24,10:30,0.219,0.188,0.306,0.287,0.276,0.154,0.093,northwest,8.1,No
2018/12/24,10:40,0.220,0.189,0.305,0.287,0.274,0.154,0.093,northwest,5.5,No
2018/12/24,10:50,0.219,0.189,0.306,0.287,0.274,0.153,0.093,northwest,10.0,No
2018/12/24,11:00,0.220,0.190,0.305,0.286,0.275,0.152,0.093,northwest,8.5,No
2018/12/24,11:10,0.219,0.189,0.307,0.287,0.275,0.153,0.094,northwest,7.9,No
2018/12/24,11:20,0.220,0.190,0.306,0.288,0.276,0.154,0.093,northwest,8.5,No
2018/12/24,11:30,0.220,0.191,0.307,0.285,0.275,0.154,0.094,west-northwest,6.5,No
2018/12/24,11:40,0.220,0.190,0.307,0.288,0.274,0.154,0.094,northwest,7.7,No
2018/12/24,11:50,0.220,0.190,0.305,0.286,0.276,0.153,0.093,west-northwest,8.4,No
2018/12/24,12:00,0.219,0.190,0.305,0.287,0.274,0.153,0.093,west-northwest,6.2,No
2018/12/24,12:10,0.221,0.190,0.307,0.289,0.276,0.153,0.093,west-northwest,6.6,No
2018/12/24,12:20,0.220,0.189,0.304,0.287,0.275,0.152,0.092,northwest,7.6,No
2018/12/24,12:30,0.221,0.190,0.305,0.287,0.275,0.154,0.093,west-northwest,9.0,No
2018/12/24,12:40,0.220,0.189,0.306,0.287,0.276,0.154,0.092,west-northwest,8.5,No
2018/12/24,12:50,0.221,0.190,0.307,0.287,0.275,0.154,0.093,west-northwest,8.4,No
2018/12/24,13:00,0.221,0.190,0.306,0.289,0.276,0.153,0.093,west-northwest,8.4,No
2018/12/24,13:10,0.221,0.190,0.307,0.288,0.277,0.154,0.093,west-northwest,7.8,No
2018/12/24,13:20,0.219,0.190,0.306,0.286,0.275,0.154,0.093,west-northwest,9.3,No
2018/12/24,13:30,0.221,0.190,0.306,0.288,0.277,0.154,0.093,west-northwest,8.7,No
2018/12/24,13:40,0.221,0.191,0.308,0.289,0.276,0.154,0.092,west-northwest,8.6,No
2018/12/24,13:50,0.221,0.190,0.306,0.289,0.275,0.153,0.094,west-northwest,9.8,No
2018/12/24,14:00,0.222,0.189,0.308,0.290,0.277,0.154,0.093,west-northwest,8.8,No
2018/12/24,14:10,0.221,0.191,0.307,0.289,0.274,0.153,0.093,west-northwest,7.5,No
2018/12/24,14:20,0.220,0.190,0.307,0.287,0.275,0.152,0.094,west-northwest,4.3,No
2018/12/24,14:30,0.221,0.188,0.307,0.288,0.275,0.154,0.093,west,10.0,No
2018/12/24,14:40,0.221,0.190,0.306,0.286,0.275,0.153,0.092,west,7.9,No
2018/12/24,14:50,0.222,0.190,0.306,0.288,0.277,0.153,0.094,west,8.9,No
2018/12/24,15:00,0.220,0.189,0.307,0.288,0.275,0.153,0.093,west,8.1,No
2018/12/24,15:10,0.220,0.191,0.306,0.287,0.276,0.154,0.093,west,8.7,No
2018/12/24,15:20,0.220,0.190,0.306,0.289,0.276,0.154,0.093,west,7.3,No
2018/12/24,15:30,0.220,0.190,0.308,0.288,0.276,0.153,0.093,west-northwest,8.6,No
2018/12/24,15:40,0.221,0.190,0.306,0.288,0.275,0.154,0.093,west-northwest,7.1,No
2018/12/24,15:50,0.221,0.191,0.307,0.288,0.277,0.153,0.092,west-northwest,7.6,No
2018/12/24,16:00,0.221,0.189,0.308,0.289,0.276,0.155,0.093,west-northwest,7.1,No
2018/12/24,16:10,0.221,0.189,0.306,0.287,0.275,0.154,0.094,west-northwest,8.8,No
2018/12/24,16:20,0.221,0.189,0.307,0.289,0.276,0.154,0.093,west-northwest,6.4,No
2018/12/24,16:30,0.221,0.189,0.307,0.288,0.276,0.153,0.093,west-northwest,5.5,No
2018/12/24,16:40,0.222,0.191,0.307,0.289,0.276,0.154,0.093,west-northwest,5.0,No
2018/12/24,16:50,0.221,0.190,0.307,0.287,0.274,0.153,0.094,west-northwest,5.5,No
2018/12/24,17:00,0.221,0.190,0.307,0.289,0.276,0.154,0.093,west-northwest,8.7,No
2018/12/24,17:10,0.221,0.191,0.308,0.289,0.275,0.153,0.093,west-northwest,7.0,No
2018/12/24,17:20,0.222,0.191,0.307,0.289,0.276,0.153,0.093,west-northwest,9.2,No
2018/12/24,17:30,0.222,0.190,0.307,0.289,0.274,0.154,0.093,northwest,5.8,No
2018/12/24,17:40,0.221,0.190,0.307,0.288,0.274,0.154,0.093,northwest,5.0,No
2018/12/24,17:50,0.220,0.190,0.308,0.288,0.275,0.154,0.093,west-northwest,4.2,No
2018/12/24,18:00,0.221,0.191,0.308,0.288,0.274,0.153,0.092,west-northwest,5.6,No
2018/12/24,18:10,0.222,0.190,0.306,0.289,0.274,0.154,0.094,northwest,4.4,No
2018/12/24,18:20,0.221,0.189,0.306,0.287,0.275,0.154,0.093,northwest,2.9,No
2018/12/24,18:30,0.221,0.191,0.307,0.288,0.275,0.155,0.093,northwest,3.4,No
2018/12/24,18:40,0.221,0.191,0.307,0.288,0.275,0.154,0.092,northwest,4.7,No
2018/12/24,18:50,0.221,0.192,0.307,0.288,0.275,0.154,0.094,northwest,5.0,No
2018/12/24,19:00,0.222,0.191,0.308,0.288,0.274,0.155,0.093,west-northwest,5.2,No
2018/12/24,19:10,0.221,0.190,0.308,0.288,0.274,0.154,0.093,west-northwest,5.3,No
2018/12/24,19:20,0.222,0.189,0.306,0.289,0.275,0.153,0.093,west-northwest,4.8,No
2018/12/24,19:30,0.221,0.190,0.307,0.288,0.274,0.154,0.093,northwest,4.4,No
2018/12/24,19:40,0.221,0.190,0.307,0.288,0.275,0.154,0.093,northwest,3.7,No
2018/12/24,19:50,0.221,0.190,0.307,0.289,0.276,0.154,0.094,west-northwest,3.2,No
2018/12/24,20:00,0.221,0.190,0.308,0.288,0.275,0.154,0.094,northwest,3.4,No
2018/12/24,20:10,0.222,0.189,0.307,0.287,0.275,0.153,0.093,northwest,2.4,No
2018/12/24,20:20,0.221,0.190,0.307,0.288,0.275,0.154,0.093,northwest,2.0,No
2018/12/24,20:30,0.221,0.189,0.307,0.288,0.275,0.153,0.093,northwest,2.5,No
2018/12/24,20:40,0.222,0.190,0.308,0.289,0.276,0.154,0.094,north-northwest,2.2,No
2018/12/24,20:50,0.221,0.190,0.308,0.289,0.275,0.153,0.093,north-northwest,1.7,No
2018/12/24,21:00,0.221,0.189,0.306,0.289,0.275,0.154,0.094,west-northwest,3.0,No
2018/12/24,21:10,0.222,0.190,0.308,0.289,0.276,0.154,0.094,west,4.5,No
2018/12/24,21:20,0.222,0.190,0.307,0.289,0.275,0.154,0.094,west-northwest,4.4,No
2018/12/24,21:30,0.220,0.191,0.306,0.289,0.275,0.154,0.094,west-northwest,5.7,No
2018/12/24,21:40,0.222,0.191,0.307,0.289,0.274,0.153,0.093,west-northwest,6.3,No
2018/12/24,21:50,0.222,0.191,0.307,0.288,0.275,0.153,0.093,west-northwest,6.3,No
2018/12/24,22:00,0.222,0.191,0.307,0.289,0.274,0.153,0.093,west-northwest,4.9,No
2018/12/24,22:10,0.221,0.191,0.307,0.288,0.274,0.153,0.093,west,7.3,No
2018/12/24,22:20,0.221,0.189,0.307,0.289,0.274,0.154,0.093,west-northwest,7.3,No
2018/12/24,22:30,0.222,0.190,0.306,0.288,0.274,0.154,0.093,west-northwest,5.7,No
2018/12/24,22:40,0.222,0.190,0.307,0.288,0.275,0.153,0.094,west-northwest,5.5,No
2018/12/24,22:50,0.221,0.189,0.307,0.287,0.275,0.154,0.094,west-northwest,5.4,No
2018/12/24,23:00,0.222,0.190,0.308,0.287,0.274,0.153,0.093,west-northwest,5.5,No
2018/12/24,23:10,0.220,0.190,0.307,0.288,0.273,0.154,0.094,west-northwest,5.8,No
2018/12/24,23:20,0.222,0.191,0.305,0.289,0.274,0.154,0.093,west-northwest,6.7,No
2018/12/24,23:30,0.221,0.189,0.307,0.288,0.275,0.154,0.094,west-northwest,5.8,No
2018/12/24,23:40,0.222,0.190,0.308,0.290,0.276,0.154,0.094,west-northwest,3.8,No
2018/12/24,23:50,0.221,0.191,0.308,0.288,0.275,0.154,0.094,west-northwest,4.2,No
